Regional Weather Roundup
Issued by NWS Northern Indiana

Home | Current Version | Previous Version | Graphics & Text | Print | Product List | Glossary On
Versions: 1 2 3 4 5 6 7 8 9 10 11 12 13 14 15 16 17 18 19 20 21 22 23 24 25 26 27 28 29 30 31 32 33 34 35 36 37 38 39 40 41 42 43 44 45 46 47 48 49 50
860
ASUS43 KIWX 171110
RWRIWX

KIWX WEATHER ROUNDUP
NATIONAL WEATHER SERVICE NORTHERN INDIANA
600 AM EST TUE JAN 17 2017

NOTE: "FAIR" INDICATES FEW OR NO CLOUDS BELOW 12,000 FEET WITH NO
SIGNIFICANT WEATHER AND/OR OBSTRUCTIONS TO VISIBILITY.

* THESE STATIONS ARE NOT UNDER NWS QUALITY CONTROL. THEY ALSO MAY NOT
  REPORT WEATHER SUCH AS PRECIPITATION OR FOG.

INZ001>027-171200-
NORTHERN INDIANA

CITY           SKY/WX    TMP DP  RH WIND       PRES   REMARKS
GARY*          CLOUDY    50  48  93 W12G23    29.74S FOG
VALPARAISO     CLOUDY    50  49  96 W21       29.73F
LAPORTE*       CLOUDY    49  49  99 SW10G16   29.73F FOG
KNOX*          CLOUDY    52  45  76 SW12      29.73F
SOUTH BEND     LGT RAIN  46  46 100 SE3       29.74F FOG
GOSHEN         RAIN      50  48  93 S12       29.75F FOG
ROCHESTER*     CLOUDY    54  54 100 SW8       29.76F
WARSAW*        LGT RAIN  50  46  87 S3        29.76F
FORT WAYNE     TSTM      50  48  93 S18G26    29.79F FOG
PERU/GRISSOM   HVY RAIN  54  54 100 W13       29.75S FOG
MARION*        CLOUDY    54  54 100 S16       29.79S

$$
INZ028>050-171200-
CENTRAL INDIANA

CITY           SKY/WX    TMP DP  RH WIND       PRES   REMARKS
LAFAYETTE      CLOUDY    52  51  97 W21G30    29.80R
KOKOMO*        RAIN      54  53  97 S14       29.77F
MUNCIE*        CLOUDY    58  54  86 S18G25    29.79F
INDIANAPOLIS   LGT RAIN  57  55  93 SW14      29.81S

$$
MIZ043>046-050>051-056>058-064>065-071>073-077>080-171200-
SOUTHWEST LOWER MICHIGAN

CITY           SKY/WX    TMP DP  RH WIND       PRES   REMARKS
BATTLE CREEK   HVY RAIN  40  40 100 SE8       29.78F FOG
BENTON HARBOR  CLOUDY    46  44  93 E8        29.71F
COLDWATER*     LGT RAIN  40  40 100 SE6       29.77F
HILLSDALE*     LGT RAIN  34  34 100 E7        29.78F WCI  28
HOLLAND        HVY RAIN  37  35  92 E8        29.76F FOG
GRAND RAPIDS   RAIN      35  35 100 E10       29.79F VSB 3/4 WCI  27
KALAMAZOO      LGT RAIN  42  40  92 SE6       29.78F
STURGIS*       LGT RAIN  43  43 100 S10       29.76F
THREE RIVERS*  RAIN      40  40 100 NE3       29.78F

$$
OHZ001>008-015>018-024>025-171200-
NORTHWEST OHIO

CITY           SKY/WX    TMP DP  RH WIND       PRES   REMARKS
DEFIANCE       FOG       40  38  93 E3        29.81F VSB 1/4
FINDLAY        CLOUDY    51  47  86 S15       29.84F
TOLEDO EXPRESS LGT RAIN  37  37 100 E6        29.82F VSB 1/4
TOLEDO METCALF FOG       37  37 100 NE3       29.85F VSB 1/4
LIMA           CLOUDY    52  52 100 S9        29.84F

$$
AND FOR LAKE MICHIGAN COASTAL AND OPEN LAKE BUOY OBSERVATIONS

STATION/POSITION TEMP    WIND        PRES    VSBY  WAVE
                 AIR SEA DIR/SP/G                  HT/PER
                 (F)     (DEG/KT/KT) (MB)    (MI)  (FT/S)
CALUMET HARBOR    45     220/  7/ 12 1006.2R
BURNS HARBOR      48     230/ 12/ 16 1007.5S

$$
&&




USA.gov is the U.S. government's official web portal to all federal, state and local government web resources and services.